Vorticity
9 6 6 7 3 6 20 11 12 19 16 34 37 -1 11 -31 -6 -26 28 23 -9 3 17 8 -5 17 -1
10 11 9 3 9 7 2 8 16 16 17 17 15 27 25 35 15 9 -1 15 10 4 10 -16 16 13 7
9 9 13 8 5 5 16 1 0 -1 1 5 8 17 19 19 22 12 15 7 14 4 7 14 13 1 13
7 9 9 9 11 7 3 7 12 10 6 4 2 3 1 8 18 20 16 16 9 6 14 10 2 35 10
7 9 9 8 9 12 10 6 5 2 3 3 1 6 10 3 2 12 25 18 23 -4 -4 9 10 14 10
9 9 10 9 9 10 10 12 10 8 5 6 6 5 6 6 12 3 11 22 15 14 18 20 2 14 2
13 9 9 9 10 11 11 10 11 10 8 7 6 8 7 9 7 8 12 20 20 21 10 16 20 -7 -11
12 10 10 10 9 9 11 10 11 12 13 2 7 9 10 11 13 14 15 20 21 17 24 20 19 20 17
10 9 9 10 9 10 11 10 12 13 15 12 18 16 18 19 16 15 15 15 17 17 21 13 27 13 22
8 9 9 9 10 10 11 12 14 23 27 27 28 26 20 39 51 39 16 14 15 16 19 19 12 25 13
7 8 9 10 11 11 12 19 20 16 12 10 6 7 7 8 5 19 40 36 20 14 16 20 20 9 27
8 9 10 12 12 14 17 14 8 8 6 7 16 13 14 29 20 13 7 24 34 28 17 15 18 22 10
10 10 12 12 12 16 10 6 4 2 9 23 3 24 -9 43 43 21 17 12 9 28 34 20 16 18 23
10 12 13 7 20 6 9 4 -0 11 15 5 24 1 15 11 41 24 21 18 20 16 14 37 25 16 19
12 11 6 20 9 8 6 5 7 18 7 10 9 17 8 14 9 48 46 26 17 18 18 9 27 31 16
11 11 9 19 3 3 2 3 13 16 9 7 17 8 32 16 4 3 -9 2 47 38 29 27 24 27 24
10 8 14 13 6 4 2 9 15 12 12 7 12 15 19 21 11 4 10 2 14 4 38 32 17 24 30
Height
5590 5588 5585 5581 5577 5576 5574 5573 5573 5575 5576 5580 5585 5584 5588 5590 5593 5601 5605 5609 5609 5616 5622 5629 5635 5641 5646
5578 5576 5575 5572 5569 5566 5565 5564 5564 5564 5565 5567 5569 5575 5575 5578 5581 5586 5593 5596 5599 5602 5605 5614 5618 5624 5630
5564 5563 5562 5562 5560 5558 5555 5553 5554 5554 5554 5555 5557 5559 5562 5564 5567 5570 5573 5578 5584 5586 5590 5594 5601 5607 5614
5551 5549 5548 5548 5547 5547 5545 5544 5542 5542 5543 5544 5546 5547 5547 5548 5553 5554 5556 5559 5565 5569 5574 5578 5582 5590 5597
5537 5536 5535 5534 5534 5534 5533 5531 5530 5529 5528 5526 5527 5527 5528 5530 5532 5535 5538 5540 5545 5547 5553 5560 5565 5570 5578
5522 5522 5522 5521 5521 5521 5520 5519 5517 5516 5516 5514 5514 5512 5512 5511 5512 5514 5517 5519 5524 5526 5531 5539 5546 5551 5558
5507 5507 5507 5507 5507 5507 5505 5504 5502 5501 5502 5499 5497 5496 5495 5491 5491 5494 5495 5496 5500 5503 5509 5515 5522 5530 5536
5494 5494 5494 5493 5493 5492 5491 5489 5486 5484 5485 5484 5481 5479 5475 5471 5469 5468 5469 5472 5475 5480 5484 5489 5496 5503 5511
5481 5482 5481 5481 5480 5479 5476 5474 5471 5466 5464 5464 5460 5458 5454 5449 5446 5444 5445 5447 5451 5456 5460 5465 5471 5479 5486
5469 5469 5469 5467 5466 5464 5461 5459 5455 5452 5446 5444 5439 5435 5436 5429 5424 5419 5420 5422 5426 5430 5435 5441 5448 5455 5462
5458 5458 5456 5455 5453 5450 5447 5444 5441 5437 5433 5431 5428 5422 5418 5417 5411 5403 5398 5397 5401 5406 5412 5418 5424 5431 5439
5448 5446 5445 5443 5441 5438 5435 5432 5430 5426 5422 5417 5413 5407 5402 5398 5393 5389 5383 5379 5380 5382 5388 5396 5402 5408 5416
5437 5436 5435 5432 5429 5427 5425 5423 5420 5414 5410 5403 5399 5394 5387 5377 5372 5370 5366 5365 5363 5365 5368 5374 5380 5385 5393
5427 5425 5424 5422 5419 5419 5417 5413 5410 5403 5395 5391 5386 5381 5374 5366 5357 5353 5349 5351 5348 5349 5352 5355 5357 5363 5371
5417 5416 5414 5412 5410 5409 5407 5404 5400 5393 5386 5380 5373 5368 5362 5356 5349 5342 5337 5334 5332 5334 5335 5337 5337 5340 5348
5408 5407 5405 5403 5402 5400 5397 5394 5388 5382 5376 5370 5364 5358 5353 5348 5339 5336 5330 5326 5320 5318 5318 5321 5320 5319 5325
5399 5397 5396 5395 5393 5391 5388 5383 5377 5372 5365 5360 5353 5347 5344 5339 5333 5325 5320 5317 5315 5311 5307 5306 5308 5306 5307